Weather History for Jacksonville, FL

Change the Weather History Date:

Thursday, December 13, 2012

  Actual Average Record
Temperature  
Mean Temperature 53 °F 56 °F  
Max Temperature 59 °F 67 °F 83 °F (1956)
Min Temperature 46 °F 44 °F 12 °F (1962)
Degree Days  
Heating Degree Days 12 10  
Month to date heating degree days 34 116  
Since 1 July heating degree days 282 289  
Cooling Degree Days 0 1  
Month to date cooling degree days 13 13  
Year to date cooling degree days 2756 2657  
Growing Degree Days 2 (Base 50)    
Moisture  
Dew Point 49 °F    
Average Humidity 92    
Maximum Humidity 100    
Minimum Humidity 83    
Precipitation  
Precipitation 0.04 in 0.09 in 2.86 in (1985)
Month to date precipitation 1.14 1.14  
Year to date precipitation 52.24 50.73  
Snow  
Snow 0.00 in 0.00 in 0.00 in (2001)
Month to date snowfall 0.0 0.0  
Since 1 July snowfall 0.0 0.0  
Snow Depth 0.00 in    
Sea Level Pressure  
Sea Level Pressure 30.22 in    
Wind  
Wind Speed 9 mph (North)    
Max Wind Speed 14 mph    
Max Gust Speed 20 mph    
Visibility 5 miles    
Events      
T = Trace of Precipitation, MM = Missing Value Source: NWS Daily Summary

Daily Weather History Graph

Daily Weather History Graph

Search for Another Location

Airport:

Trip Planner

Search our weather history database for the weather conditions in past years. The results will help you decide how hot, cold, wet, or windy it might be!

Date:

Astronomy

Dec. 13, 2012 Rise Set
Actual Time 7:15 AM EST 5:27 PM EST
Civil Twilight 6:48 AM EST 5:53 PM EST
Nautical Twilight 6:18 AM EST 6:23 PM EST
Astronomical Twilight 5:49 AM EST 6:53 PM EST
Moon 7:23 AM EST (12/13) 6:06 PM EST (12/13)
Length of Visible Light 11h 04m
Length of Day
10h 11m
New Moon, 0% of the Moon is Illuminated
Dec 13
New Moon
Dec 20
First Quarter
Dec 28
Full
Jan 4
Last Quarter
Jan 11
New

Hourly Weather History & Observations

Time (EST) Temp. Windchill Dew Point Humidity Pressure Visibility Wind Dir Wind Speed Gust Speed Precip Events Conditions
12:56 AM 59.0 °F - 57.9 °F 96% 30.12 in 4.0 mi NNW 10.4 mph - 0.00 in   Overcast
1:18 AM 57.2 °F - 57.2 °F 100% 30.11 in 4.0 mi NNW 8.1 mph - N/A   Overcast
1:56 AM 57.0 °F - 55.9 °F 96% 30.11 in 3.0 mi NNW 10.4 mph - N/A   Overcast
2:56 AM 55.0 °F - 54.0 °F 96% 30.12 in 3.0 mi North 10.4 mph - N/A   Overcast
3:11 AM 53.6 °F - 53.6 °F 100% 30.12 in 4.0 mi NNW 9.2 mph - N/A   Overcast
3:56 AM 53.6 °F - 51.8 °F 94% 30.12 in 6.0 mi NNW 10.4 mph - N/A   Overcast
4:56 AM 53.1 °F - 51.1 °F 93% 30.13 in 10.0 mi North 9.2 mph - N/A   Overcast
5:56 AM 52.0 °F - 51.1 °F 97% 30.15 in 10.0 mi North 8.1 mph - 0.04 in   Overcast
6:22 AM 51.8 °F - 51.8 °F 100% 30.17 in 2.0 mi NNW 11.5 mph - N/A   Overcast
6:41 AM 51.8 °F - 50.0 °F 94% 30.18 in 1.0 mi NNW 9.2 mph - N/A   Overcast
6:56 AM 51.8 °F - 50.0 °F 94% 30.19 in 1.0 mi NNW 8.1 mph - N/A   Overcast
7:31 AM 50.0 °F - 48.2 °F 94% 30.21 in 2.0 mi NNW 8.1 mph - 0.00 in   Light Drizzle
7:56 AM 50.0 °F - 48.9 °F 96% 30.22 in 2.0 mi North 8.1 mph - 0.00 in   Light Drizzle
8:11 AM 50.0 °F - 48.2 °F 94% 30.23 in 1.2 mi NNE 8.1 mph - 0.00 in   Light Drizzle
8:45 AM 50.0 °F - 48.2 °F 94% 30.24 in 2.0 mi North 10.4 mph - 0.00 in   Light Drizzle
8:56 AM 50.0 °F - 48.9 °F 96% 30.25 in 2.0 mi North 10.4 mph - 0.00 in   Light Drizzle
9:56 AM 48.9 °F - 48.0 °F 97% 30.27 in 7.0 mi North 10.4 mph - 0.00 in   Overcast
10:56 AM 48.9 °F - 46.9 °F 93% 30.28 in 6.0 mi North 9.2 mph - 0.00 in   Light Drizzle
11:56 AM 50.0 °F - 46.9 °F 89% 30.27 in 10.0 mi North 9.2 mph - 0.00 in   Overcast
12:56 PM 50.0 °F - 46.9 °F 89% 30.25 in 10.0 mi North 8.1 mph - N/A   Overcast
1:56 PM 51.1 °F - 46.9 °F 86% 30.25 in 10.0 mi NNE 8.1 mph - N/A   Overcast
2:56 PM 50.0 °F - 46.9 °F 89% 30.25 in 9.0 mi NNE 9.2 mph - N/A   Overcast
3:56 PM 48.9 °F - 46.0 °F 90% 30.25 in 6.0 mi North 9.2 mph - N/A   Overcast
4:56 PM 48.0 °F - 45.0 °F 89% 30.25 in 10.0 mi North 11.5 mph - N/A   Overcast
6:56 PM 46.4 °F 43.5 °F 44.6 °F 93% 30.27 in 7.0 mi NNE 5.8 mph - N/A   Overcast
7:56 PM 46.9 °F - 45.0 °F 93% 30.29 in 4.0 mi North 8.1 mph - N/A   Overcast
8:56 PM 46.9 °F - 45.0 °F 93% 30.29 in 3.0 mi North 6.9 mph - N/A   Overcast
9:56 PM 46.0 °F 43.1 °F 45.0 °F 96% 30.29 in 3.0 mi NNW 5.8 mph - N/A   Overcast
10:35 PM 46.4 °F 42.9 °F 44.6 °F 93% 30.29 in 2.5 mi North 6.9 mph - N/A   Overcast
10:56 PM 46.0 °F 43.1 °F 45.0 °F 96% 30.29 in 2.0 mi North 5.8 mph - N/A   Overcast
11:56 PM 46.0 °F 43.1 °F 45.0 °F 96% 30.27 in 2.0 mi NW 5.8 mph - N/A   Overcast